Regional Weather Roundup
Issued by NWS State College, PA

Home | Current Version | Previous Version | Graphics & Text | Print | Product List | Glossary On
Versions: 1 2 3 4 5 6 7 8 9 10 11 12 13 14 15 16 17 18 19 20 21 22 23 24 25 26 27 28 29 30 31 32 33 34 35 36 37 38 39 40 41 42 43 44 45 46 47 48 49 50
000
ASUS41 KCTP 291810
RWRCTP

REGIONAL WEATHER ROUNDUP
NATIONAL WEATHER SERVICE STATE COLLEGE PA
200 PM EDT FRI MAY 29 2015

Note: "fair" indicates few or no clouds below 12,000 feet with no
significant weather and/or obstructions to visibility.

* = STATION THAT DOES NOT REPORT PRECIPITATION /E.G. RAIN...SNOW...ETC/
    THUNDER OR FOG.

PAZ002>004-007>009-013>016-020>023-029>032-291900-
WESTERN PENNSYLVANIA

CITY           SKY/WX    TMP DP  RH WIND       PRES   REMARKS
ERIE           PTSUNNY   83  61  47 SE9       30.15F
MEADVILLE      PTSUNNY   79  61  53 VRB6      30.19F
FRANKLIN*      PTSUNNY   81  63  54 S9        30.22S
NEW CASTLE     FAIR      85  66  52 S8        30.17F
BEAVER COUNTY  MOSUNNY   81  64  57 S7        30.19F
BUTLER*        MOSUNNY   82  63  51 SW12      30.21F
PITTSBURGH INT PTSUNNY   84  63  49 SW10      30.18F
PITTSBURGH     MOSUNNY   84  59  42 S12       30.18F
INDIANA*       MOSUNNY   82  63  51 S12       30.25F
LATROBE        MOSUNNY   84  63  48 S14       30.22F
WASHINGTON CO* PTSUNNY   82  64  54 S7        30.21F
$$

PAZ004>006-010>012-017>019-024>028-033>037-041-042-045-046-049>053-291900-
CENTRAL PENNSYLVANIA

CITY           SKY/WX    TMP DP  RH WIND       PRES   REMARKS
BRADFORD       MOSUNNY   78  56  46 VRB7      30.25F
DUBOIS         MOSUNNY   83  58  42 S12G18    30.23F
CLEARFIELD     MOSUNNY   81  58  45 S8G17     30.25F
JOHNSTOWN      MOSUNNY   77  61  57 S16       30.27F
ALTOONA        MOSUNNY   81  60  48 S10       30.26F
STATE COLLEGE  SUNNY     81  59  47 S8        30.26F
WILLIAMSPORT   MOSUNNY   80  56  43 SE7       30.23F
SELINSGROVE    SUNNY     83  57  41 VRB7      30.25F
FT INDIANTOWN  MOSUNNY   80  60  51 VRB3      30.26F
CAPITAL CITY   SUNNY     81  61  50 E12       30.25F
HARRISBURG     MOSUNNY   83  62  49 SE7       30.24F
YORK           SUNNY     82  65  56 SE6       30.26F
$$

PAZ038>040-043-044-047-048-054-055-060>062-067>071-291900-
EASTERN PENNSYLVANIA

CITY           SKY/WX    TMP DP  RH WIND       PRES   REMARKS
SCRANTON       SUNNY     82  52  35 VRB3      30.26F
MOUNT POCONO   SUNNY     76  51  41 CALM      30.31F
ALLENTOWN      SUNNY     86  54  33 CALM      30.26F
QUAKERTOWN*    CLEAR     82  57  42 SW5       30.27F
READING        SUNNY     83  54  36 E6        30.25F
LANCASTER      SUNNY     83  59  44 S5        30.26S
COATESVILLE    CLEAR     79  63  57 S3        30.28F
POTTSTOWN      SUNNY     82  58  43 VRB5      30.27F
BLUE BELL      SUNNY     86  61  42 S5        30.25F
DOYLESTOWN     SUNNY     82  55  39 S7        30.25F
WILLOW GROVE   NOT AVBL
NORTH PHILA    SUNNY     85  52  32 VRB3      30.27S
PHILADELPHIA   MOSUNNY   83  59  44 NE5       30.25F
$$


USA.gov is the U.S. government's official web portal to all federal, state and local government web resources and services.